Time,TemperatureF,DewpointF,PressureIn,WindDirection,WindDirectionDegrees,WindSpeedMPH,WindSpeedGustMPH,Humidity,HourlyPrecipIn,Conditions,Clouds,dailyrainin,SoftwareType,DateUTC
2013-04-29 00:00:00,52.2,24.0,30.20,SE,140,0.0,2.0,33,0.00,,OVC110,0.00,VWS V13.01,2013-04-29 07:00:00,
2013-04-29 00:05:00,52.2,24.7,30.20,SE,140,0.0,2.0,34,0.00,,OVC110,0.00,VWS V13.01,2013-04-29 07:05:00,
2013-04-29 00:10:00,52.3,20.2,30.20,SE,145,1.0,4.0,28,0.00,,OVC110,0.00,VWS V13.01,2013-04-29 07:10:00,
2013-04-29 00:15:00,52.3,20.2,30.20,South,180,2.0,2.0,28,0.00,,OVC110,0.00,VWS V13.01,2013-04-29 07:15:00,
2013-04-29 00:20:00,52.3,17.5,30.20,SW,219,0.0,3.0,25,0.00,,OVC110,0.00,VWS V13.01,2013-04-29 07:20:00,
2013-04-29 00:25:00,52.3,14.6,30.20,SE,138,2.0,5.0,22,0.00,,OVC110,0.00,VWS V13.01,2013-04-29 07:25:00,
2013-04-29 00:31:00,52.3,10.1,30.20,South,185,3.0,4.0,18,0.00,,OVC110,0.00,VWS V13.01,2013-04-29 07:31:00,
2013-04-29 00:36:00,52.3,7.5,30.20,South,188,3.0,4.0,16,0.00,,OVC110,0.00,VWS V13.01,2013-04-29 07:36:00,
2013-04-29 00:41:00,52.3,1.2,30.19,SSE,168,1.0,5.0,12,0.00,,OVC110,0.00,VWS V13.01,2013-04-29 07:41:00,
2013-04-29 00:46:00,52.2,-13.2,30.20,SSW,195,2.0,2.0,6,0.00,,OVC110,0.00,VWS V13.01,2013-04-29 07:46:00,
2013-04-29 00:51:00,52.2,-33.8,30.20,South,173,0.0,4.0,2,0.00,,OVC075,0.00,VWS V13.01,2013-04-29 07:51:00,
2013-04-29 00:56:00,52.1,0.0,30.20,South,190,0.0,4.0,0,0.00,,OVC075,0.00,VWS V13.01,2013-04-29 07:56:00,
2013-04-29 01:01:00,52.1,0.0,30.20,SW,229,0.0,3.0,0,0.00,,OVC075,0.00,VWS V13.01,2013-04-29 08:01:00,
2013-04-29 01:06:00,52.1,0.0,30.20,South,189,1.0,3.0,0,0.00,,OVC075,0.00,VWS V13.01,2013-04-29 08:06:00,
2013-04-29 01:11:00,52.1,0.0,30.20,SW,234,2.0,3.0,0,0.00,,OVC075,0.00,VWS V13.01,2013-04-29 08:11:00,
2013-04-29 01:16:00,52.1,0.0,30.20,SSW,198,2.0,4.0,0,0.00,,OVC075,0.00,VWS V13.01,2013-04-29 08:16:00,
2013-04-29 01:21:00,52.1,0.0,30.20,South,173,3.0,4.0,0,0.00,,OVC075,0.00,VWS V13.01,2013-04-29 08:21:00,
2013-04-29 01:26:00,52.1,0.0,30.20,SSE,163,1.0,4.0,0,0.00,,OVC075,0.00,VWS V13.01,2013-04-29 08:26:00,
2013-04-29 01:32:00,52.1,0.0,30.20,SSE,160,5.0,5.0,0,0.00,,OVC075,0.00,VWS V13.01,2013-04-29 08:32:00,
2013-04-29 01:37:00,52.0,0.0,30.20,SE,139,0.0,5.0,0,0.00,,OVC075,0.00,VWS V13.01,2013-04-29 08:37:00,
2013-04-29 01:42:00,52.0,0.0,30.20,SSW,207,2.0,5.0,0,0.00,,OVC075,0.00,VWS V13.01,2013-04-29 08:42:00,
2013-04-29 01:47:00,52.0,0.0,30.19,SSW,201,3.0,4.0,0,0.00,,OVC075,0.00,VWS V13.01,2013-04-29 08:47:00,
2013-04-29 01:52:00,52.0,0.0,30.19,SW,228,0.0,4.0,0,0.00,,OVC080,0.00,VWS V13.01,2013-04-29 08:52:00,
2013-04-29 01:57:00,51.9,0.0,30.19,SSE,163,0.0,4.0,0,0.00,,OVC080,0.00,VWS V13.01,2013-04-29 08:57:00,
2013-04-29 02:02:00,51.9,0.0,30.19,SSE,166,0.0,1.0,0,0.00,,OVC080,0.00,VWS V13.01,2013-04-29 09:02:00,
2013-04-29 02:07:00,51.9,0.0,30.19,SSE,154,0.0,2.0,0,0.00,,OVC080,0.00,VWS V13.01,2013-04-29 09:07:00,
2013-04-29 02:12:00,51.9,0.0,30.19,SSE,154,0.0,2.0,0,0.00,,OVC080,0.00,VWS V13.01,2013-04-29 09:12:00,
2013-04-29 02:17:00,51.9,0.0,30.19,SW,224,2.0,2.0,0,0.00,,OVC080,0.00,VWS V13.01,2013-04-29 09:17:00,
2013-04-29 02:22:00,51.9,0.0,30.19,WSW,239,0.0,2.0,0,0.00,,OVC080,0.00,VWS V13.01,2013-04-29 09:22:00,
2013-04-29 02:28:00,51.9,0.0,30.19,SW,228,0.0,2.0,0,0.00,,OVC080,0.00,VWS V13.01,2013-04-29 09:28:00,
2013-04-29 02:33:00,52.0,0.0,30.19,SW,234,0.0,2.0,0,0.00,,OVC080,0.00,VWS V13.01,2013-04-29 09:33:00,
2013-04-29 02:38:00,52.0,0.0,30.18,South,179,0.0,3.0,0,0.00,,OVC080,0.00,VWS V13.01,2013-04-29 09:38:00,
2013-04-29 02:43:00,51.9,0.0,30.18,SW,225,1.0,3.0,0,0.00,,OVC080,0.00,VWS V13.01,2013-04-29 09:43:00,
2013-04-29 02:48:00,51.9,0.0,30.18,SSW,209,1.0,4.0,0,0.00,,OVC080,0.00,VWS V13.01,2013-04-29 09:48:00,
2013-04-29 02:53:00,52.0,0.0,30.18,SW,217,0.0,4.0,0,0.00,,OVC090,0.00,VWS V13.01,2013-04-29 09:53:00,
2013-04-29 02:58:00,51.9,0.0,30.18,SW,223,0.0,4.0,0,0.00,,OVC090,0.00,VWS V13.01,2013-04-29 09:58:00,
2013-04-29 03:03:00,51.9,0.0,30.18,SW,223,0.0,1.0,0,0.00,,OVC090,0.00,VWS V13.01,2013-04-29 10:03:00,
2013-04-29 03:08:00,51.9,0.0,30.18,South,188,0.0,3.0,0,0.00,,OVC090,0.00,VWS V13.01,2013-04-29 10:08:00,
2013-04-29 03:13:00,51.9,0.0,30.18,South,186,0.0,3.0,0,0.00,,OVC090,0.00,VWS V13.01,2013-04-29 10:13:00,
2013-04-29 03:18:00,51.9,0.0,30.18,South,183,0.0,3.0,0,0.00,,OVC090,0.00,VWS V13.01,2013-04-29 10:18:00,
2013-04-29 03:24:00,51.9,0.0,30.18,South,183,0.0,3.0,0,0.00,,OVC090,0.00,VWS V13.01,2013-04-29 10:24:00,
2013-04-29 03:29:00,51.9,0.0,30.18,South,183,0.0,3.0,0,0.00,,OVC090,0.00,VWS V13.01,2013-04-29 10:29:00,
2013-04-29 03:34:00,51.9,0.0,30.17,South,183,0.0,2.0,0,0.00,,OVC090,0.00,VWS V13.01,2013-04-29 10:34:00,
2013-04-29 03:39:00,51.9,0.0,30.17,SSE,158,2.0,3.0,0,0.00,,OVC090,0.00,VWS V13.01,2013-04-29 10:39:00,
2013-04-29 03:44:00,51.9,0.0,30.17,SE,144,0.0,3.0,0,0.00,,OVC090,0.00,VWS V13.01,2013-04-29 10:44:00,
2013-04-29 03:49:00,51.9,0.0,30.17,SE,144,0.0,1.0,0,0.00,,OVC090,0.00,VWS V13.01,2013-04-29 10:49:00,
2013-04-29 03:54:00,51.9,0.0,30.17,SE,144,0.0,1.0,0,0.00,,OVC019,0.00,VWS V13.01,2013-04-29 10:54:00,
2013-04-29 03:59:00,52.0,0.0,30.17,SW,217,0.0,2.0,0,0.00,,OVC019,0.00,VWS V13.01,2013-04-29 10:59:00,
2013-04-29 04:04:00,51.9,0.0,30.17,SE,124,1.0,2.0,0,0.01,,OVC019,0.01,VWS V13.01,2013-04-29 11:04:00,
2013-04-29 04:09:00,51.9,0.0,30.17,SE,124,0.0,2.0,0,0.01,,OVC019,0.01,VWS V13.01,2013-04-29 11:09:00,
2013-04-29 04:14:00,51.9,0.0,30.17,SSW,198,0.0,1.0,0,0.01,,OVC019,0.01,VWS V13.01,2013-04-29 11:14:00,
2013-04-29 04:19:00,51.9,0.0,30.17,SSW,198,1.0,1.0,0,0.01,,OVC019,0.01,VWS V13.01,2013-04-29 11:19:00,
2013-04-29 04:24:00,51.9,0.0,30.17,SSW,200,0.0,2.0,0,0.01,,OVC019,0.01,VWS V13.01,2013-04-29 11:24:00,
2013-04-29 04:30:00,51.9,0.0,30.16,South,186,0.0,1.0,0,0.01,,OVC019,0.01,VWS V13.01,2013-04-29 11:30:00,
2013-04-29 04:35:00,51.9,0.0,30.16,South,186,0.0,1.0,0,0.01,,OVC019,0.01,VWS V13.01,2013-04-29 11:35:00,
2013-04-29 04:40:00,51.9,0.0,30.16,South,186,0.0,1.0,0,0.01,,OVC019,0.01,VWS V13.01,2013-04-29 11:40:00,
2013-04-29 04:45:00,51.9,0.0,30.16,South,186,0.0,0.0,0,0.01,,OVC019,0.01,VWS V13.01,2013-04-29 11:45:00,
2013-04-29 04:50:00,51.9,0.0,30.16,South,186,0.0,1.0,0,0.01,,OVC019,0.01,VWS V13.01,2013-04-29 11:50:00,
2013-04-29 04:55:00,52.0,0.0,30.16,South,186,0.0,1.0,0,0.01,,OVC019,0.01,VWS V13.01,2013-04-29 11:55:00,
2013-04-29 05:00:00,51.9,0.0,30.16,South,186,0.0,0.0,0,0.01,,OVC019,0.01,VWS V13.01,2013-04-29 12:00:00,
2013-04-29 05:05:00,51.9,0.0,30.16,South,186,0.0,0.0,0,0.01,,OVC019,0.01,VWS V13.01,2013-04-29 12:05:00,
2013-04-29 05:10:00,51.9,0.0,30.15,South,186,0.0,0.0,0,0.02,,OVC019,0.02,VWS V13.01,2013-04-29 12:10:00,
2013-04-29 05:15:00,51.9,0.0,30.15,South,186,0.0,0.0,0,0.01,,OVC019,0.02,VWS V13.01,2013-04-29 12:15:00,
2013-04-29 05:20:00,51.9,0.0,30.16,South,186,0.0,0.0,0,0.01,,OVC090,0.02,VWS V13.01,2013-04-29 12:20:00,
2013-04-29 05:25:00,51.9,0.0,30.15,South,186,0.0,0.0,0,0.01,,OVC090,0.02,VWS V13.01,2013-04-29 12:25:00,
2013-04-29 05:30:00,51.8,0.0,30.15,South,186,0.0,0.0,0,0.01,,OVC090,0.02,VWS V13.01,2013-04-29 12:30:00,
2013-04-29 05:35:00,51.8,0.0,30.15,South,186,0.0,0.0,0,0.01,,OVC090,0.02,VWS V13.01,2013-04-29 12:35:00,
2013-04-29 05:40:00,51.8,0.0,30.15,South,186,0.0,0.0,0,0.01,,OVC090,0.02,VWS V13.01,2013-04-29 12:40:00,
2013-04-29 05:46:00,51.7,0.0,30.15,South,186,0.0,0.0,0,0.01,,OVC090,0.03,VWS V13.01,2013-04-29 12:46:00,
2013-04-29 05:51:00,51.7,0.0,30.15,South,186,0.0,0.0,0,0.02,,OVC090,0.03,VWS V13.01,2013-04-29 12:51:00,
2013-04-29 05:56:00,51.7,0.0,30.15,South,186,0.0,0.0,0,0.02,,OVC090,0.03,VWS V13.01,2013-04-29 12:56:00,
2013-04-29 06:01:00,51.7,0.0,30.15,South,186,0.0,0.0,0,0.02,,OVC090,0.03,VWS V13.01,2013-04-29 13:01:00,
2013-04-29 06:06:00,51.7,0.0,30.15,South,186,0.0,0.0,0,0.02,,OVC090,0.03,VWS V13.01,2013-04-29 13:06:00,
2013-04-29 06:11:00,51.7,0.0,30.16,South,186,0.0,0.0,0,0.03,,OVC090,0.04,VWS V13.01,2013-04-29 13:11:00,
2013-04-29 06:16:00,51.7,0.0,30.16,South,186,0.0,0.0,0,0.02,,OVC090,0.04,VWS V13.01,2013-04-29 13:16:00,
2013-04-29 06:21:00,51.7,0.0,30.16,South,186,0.0,1.0,0,0.02,,OVC090,0.04,VWS V13.01,2013-04-29 13:21:00,
2013-04-29 06:26:00,51.7,0.0,30.16,South,186,0.0,1.0,0,0.02,,OVC090,0.04,VWS V13.01,2013-04-29 13:26:00,
2013-04-29 06:31:00,51.7,0.0,30.16,South,186,0.0,0.0,0,0.02,,OVC090,0.04,VWS V13.01,2013-04-29 13:31:00,
2013-04-29 06:36:00,51.6,0.0,30.16,South,186,0.0,0.0,0,0.02,,OVC090,0.04,VWS V13.01,2013-04-29 13:36:00,
2013-04-29 06:42:00,51.5,0.0,30.16,South,186,0.0,0.0,0,0.02,,OVC090,0.04,VWS V13.01,2013-04-29 13:42:00,
2013-04-29 06:47:00,51.5,0.0,30.16,South,186,0.0,0.0,0,0.02,,OVC090,0.04,VWS V13.01,2013-04-29 13:47:00,
2013-04-29 06:52:00,51.5,0.0,30.17,South,186,0.0,0.0,0,0.02,,BKN055,0.04,VWS V13.01,2013-04-29 13:52:00,
2013-04-29 06:57:00,51.5,0.0,30.17,South,186,0.0,1.0,0,0.02,,BKN055,0.04,VWS V13.01,2013-04-29 13:57:00,
2013-04-29 07:02:00,51.6,0.0,30.17,South,186,0.0,0.0,0,0.01,,BKN055,0.04,VWS V13.01,2013-04-29 14:02:00,
2013-04-29 07:07:00,51.5,0.0,30.17,ENE,61,2.0,3.0,0,0.02,,BKN055,0.05,VWS V13.01,2013-04-29 14:07:00,
2013-04-29 07:12:00,51.1,0.0,30.17,ENE,62,4.0,5.0,0,0.02,,BKN055,0.05,VWS V13.01,2013-04-29 14:12:00,
2013-04-29 07:17:00,50.9,0.0,30.17,NE,38,1.0,4.0,0,0.01,,BKN055,0.05,VWS V13.01,2013-04-29 14:17:00,
2013-04-29 07:22:00,50.9,0.0,30.17,NE,38,0.0,4.0,0,0.01,,BKN055,0.05,VWS V13.01,2013-04-29 14:22:00,
2013-04-29 07:27:00,50.8,0.0,30.18,ENE,67,0.0,4.0,0,0.01,,BKN055,0.05,VWS V13.01,2013-04-29 14:27:00,
2013-04-29 07:32:00,50.8,0.0,30.18,ENE,78,1.0,2.0,0,0.01,,BKN055,0.05,VWS V13.01,2013-04-29 14:32:00,
2013-04-29 07:37:00,50.6,0.0,30.19,NE,44,1.0,3.0,0,0.01,,BKN055,0.05,VWS V13.01,2013-04-29 14:37:00,
2013-04-29 07:42:00,50.4,0.0,30.19,East,79,1.0,4.0,0,0.01,,BKN055,0.05,VWS V13.01,2013-04-29 14:42:00,
2013-04-29 07:47:00,50.1,0.0,30.19,NNE,17,1.0,3.0,0,0.01,,BKN055,0.05,VWS V13.01,2013-04-29 14:47:00,
2013-04-29 07:53:00,49.8,0.0,30.19,NE,49,1.0,5.0,0,0.01,,-RA,0.05,VWS V13.01,2013-04-29 14:53:00,
2013-04-29 07:58:00,49.7,0.0,30.19,NE,38,0.0,5.0,0,0.01,,-RA,0.05,VWS V13.01,2013-04-29 14:58:00,
2013-04-29 08:03:00,49.8,0.0,30.19,NE,38,0.0,0.0,0,0.01,,-RA,0.05,VWS V13.01,2013-04-29 15:03:00,
2013-04-29 08:08:00,49.9,0.0,30.19,NE,38,0.0,0.0,0,0.01,,-RA,0.05,VWS V13.01,2013-04-29 15:08:00,
2013-04-29 08:13:00,49.9,0.0,30.19,NE,39,0.0,0.0,0,0.01,,-RA,0.05,VWS V13.01,2013-04-29 15:13:00,
2013-04-29 08:18:00,49.9,0.0,30.19,NE,38,0.0,0.0,0,0.00,,-RA,0.05,VWS V13.01,2013-04-29 15:18:00,
2013-04-29 08:23:00,50.1,0.0,30.19,NE,39,0.0,1.0,0,0.00,,-RA,0.05,VWS V13.01,2013-04-29 15:23:00,
2013-04-29 08:28:00,50.2,0.0,30.20,NE,39,0.0,1.0,0,0.00,,-RA,0.05,VWS V13.01,2013-04-29 15:28:00,
2013-04-29 08:33:00,50.4,0.0,30.20,NE,39,0.0,0.0,0,0.00,,-RA,0.05,VWS V13.01,2013-04-29 15:33:00,
2013-04-29 08:38:00,50.5,0.0,30.20,South,169,1.0,2.0,0,0.00,,-RA,0.05,VWS V13.01,2013-04-29 15:38:00,
2013-04-29 08:43:00,50.5,0.0,30.20,South,173,0.0,2.0,0,0.00,,-RA,0.05,VWS V13.01,2013-04-29 15:43:00,
2013-04-29 08:49:00,50.7,0.0,30.20,South,173,0.0,0.0,0,0.00,,-RA,0.05,VWS V13.01,2013-04-29 15:49:00,
2013-04-29 08:54:00,51.0,0.0,30.20,South,170,0.0,1.0,0,0.00,,OVC060,0.05,VWS V13.01,2013-04-29 15:54:00,
2013-04-29 08:59:00,51.0,0.0,30.20,SE,144,0.0,2.0,0,0.00,,OVC060,0.05,VWS V13.01,2013-04-29 15:59:00,
2013-04-29 09:04:00,51.0,-17.6,30.20,ESE,117,0.0,1.0,5,0.00,,OVC060,0.05,VWS V13.01,2013-04-29 16:04:00,
2013-04-29 09:09:00,51.2,0.0,30.21,East,83,2.0,2.0,0,0.00,,OVC060,0.05,VWS V13.01,2013-04-29 16:09:00,
2013-04-29 09:14:00,50.8,0.0,30.21,ENE,61,1.0,1.0,0,0.00,,OVC060,0.05,VWS V13.01,2013-04-29 16:14:00,
2013-04-29 09:19:00,50.9,0.0,30.21,ENE,61,0.0,2.0,0,0.00,,OVC060,0.05,VWS V13.01,2013-04-29 16:19:00,
2013-04-29 09:24:00,51.0,0.0,30.21,ENE,61,0.0,2.0,0,0.00,,OVC060,0.05,VWS V13.01,2013-04-29 16:24:00,
2013-04-29 09:29:00,51.1,0.0,30.21,SSE,162,1.0,1.0,0,0.00,,OVC060,0.05,VWS V13.01,2013-04-29 16:29:00,
2013-04-29 09:34:00,51.6,0.0,30.21,SSW,196,0.0,2.0,0,0.00,,OVC060,0.05,VWS V13.01,2013-04-29 16:34:00,
2013-04-29 09:39:00,51.6,0.0,30.21,SSW,196,1.0,2.0,0,0.00,,OVC060,0.05,VWS V13.01,2013-04-29 16:39:00,
2013-04-29 09:44:00,51.7,0.0,30.21,SSW,196,1.0,1.0,0,0.00,,OVC060,0.05,VWS V13.01,2013-04-29 16:44:00,
2013-04-29 09:50:00,51.5,0.0,30.21,South,177,0.0,2.0,0,0.00,,BKN055,0.05,VWS V13.01,2013-04-29 16:50:00,
2013-04-29 09:55:00,51.6,0.0,30.21,North,355,2.0,3.0,0,0.00,,BKN055,0.05,VWS V13.01,2013-04-29 16:55:00,
2013-04-29 10:00:00,51.7,16.1,30.21,NNE,25,1.0,2.0,24,0.00,,BKN055,0.05,VWS V13.01,2013-04-29 17:00:00,
2013-04-29 10:05:00,52.1,2.8,30.21,ENE,61,1.0,4.0,13,0.00,,BKN055,0.05,VWS V13.01,2013-04-29 17:05:00,
2013-04-29 10:10:00,52.3,21.8,30.21,ENE,57,2.0,4.0,30,0.00,,BKN055,0.05,VWS V13.01,2013-04-29 17:10:00,
2013-04-29 10:15:00,52.2,35.6,30.21,SE,125,3.0,7.0,53,0.00,,BKN055,0.05,VWS V13.01,2013-04-29 17:15:00,
2013-04-29 10:20:00,52.0,36.8,30.21,ESE,117,2.0,7.0,56,0.00,,BKN055,0.05,VWS V13.01,2013-04-29 17:20:00,
2013-04-29 10:25:00,52.0,36.3,30.21,East,100,1.0,7.0,55,0.00,,BKN055,0.05,VWS V13.01,2013-04-29 17:25:00,
2013-04-29 10:30:00,52.1,36.9,30.21,NNW,338,1.0,2.0,56,0.00,,BKN055,0.05,VWS V13.01,2013-04-29 17:30:00,
2013-04-29 10:35:00,52.1,35.0,30.21,NE,36,3.0,9.0,52,0.00,,BKN055,0.05,VWS V13.01,2013-04-29 17:35:00,
2013-04-29 10:40:00,51.9,26.5,30.22,NE,45,3.0,9.0,37,0.00,,BKN055,0.05,VWS V13.01,2013-04-29 17:40:00,
2013-04-29 10:46:00,52.2,20.9,30.22,ENE,57,6.0,10.0,29,0.00,,BKN055,0.05,VWS V13.01,2013-04-29 17:46:00,
2013-04-29 10:51:00,52.2,34.6,30.22,ENE,76,8.0,13.0,51,0.00,,BKN055,0.05,VWS V13.01,2013-04-29 17:51:00,
2013-04-29 10:56:00,52.3,37.5,30.22,ENE,74,6.0,13.0,57,0.00,,BKN055,0.05,VWS V13.01,2013-04-29 17:56:00,
2013-04-29 11:01:00,52.7,34.6,30.22,ENE,62,4.0,11.0,50,0.00,,BKN055,0.05,VWS V13.01,2013-04-29 18:01:00,
2013-04-29 11:06:00,53.0,38.2,30.22,ESE,122,1.0,11.0,57,0.00,,BKN055,0.05,VWS V13.01,2013-04-29 18:06:00,
2013-04-29 11:11:00,53.5,42.4,30.22,East,94,2.0,11.0,66,0.00,,BKN055,0.05,VWS V13.01,2013-04-29 18:11:00,
2013-04-29 11:16:00,54.0,42.1,30.22,SE,132,3.0,4.0,64,0.00,,BKN055,0.05,VWS V13.01,2013-04-29 18:16:00,
2013-04-29 11:21:00,54.0,43.7,30.22,NE,53,4.0,11.0,68,0.00,,BKN055,0.05,VWS V13.01,2013-04-29 18:21:00,
2013-04-29 11:26:00,54.1,44.2,30.22,East,88,6.0,15.0,69,0.00,,BKN055,0.05,VWS V13.01,2013-04-29 18:26:00,
2013-04-29 11:31:00,53.9,44.0,30.22,NE,44,5.0,11.0,69,0.00,,BKN030,0.05,VWS V13.01,2013-04-29 18:31:00,
2013-04-29 11:36:00,53.5,43.2,30.22,NE,51,5.0,11.0,68,0.00,,BKN030,0.05,VWS V13.01,2013-04-29 18:36:00,
2013-04-29 11:41:00,53.1,43.2,30.22,NNE,15,9.0,11.0,69,0.00,,BKN030,0.05,VWS V13.01,2013-04-29 18:41:00,
2013-04-29 11:46:00,52.8,42.9,30.22,ENE,73,3.0,5.0,69,0.00,,BKN030,0.05,VWS V13.01,2013-04-29 18:46:00,
2013-04-29 11:52:00,53.3,43.0,30.22,ENE,65,1.0,10.0,68,0.00,,BKN049,0.05,VWS V13.01,2013-04-29 18:52:00,
2013-04-29 11:57:00,53.9,43.2,30.22,East,83,2.0,10.0,67,0.00,,BKN049,0.05,VWS V13.01,2013-04-29 18:57:00,
2013-04-29 12:02:00,53.9,43.6,30.22,NNE,30,3.0,9.0,68,0.00,,BKN049,0.05,VWS V13.01,2013-04-29 19:02:00,
2013-04-29 12:07:00,54.0,43.7,30.22,ENE,63,10.0,10.0,68,0.00,,BKN049,0.05,VWS V13.01,2013-04-29 19:07:00,
2013-04-29 12:12:00,53.7,43.0,30.22,North,349,5.0,14.0,67,0.00,,BKN049,0.05,VWS V13.01,2013-04-29 19:12:00,
2013-04-29 12:17:00,53.3,43.4,30.22,NE,53,7.0,11.0,69,0.00,,BKN049,0.05,VWS V13.01,2013-04-29 19:17:00,
2013-04-29 12:22:00,53.3,43.0,30.22,NE,38,8.0,11.0,68,0.00,,BKN049,0.05,VWS V13.01,2013-04-29 19:22:00,
2013-04-29 12:27:00,54.1,43.4,30.22,ENE,58,8.0,11.0,67,0.00,,BKN049,0.05,VWS V13.01,2013-04-29 19:27:00,
2013-04-29 12:32:00,54.7,43.6,30.21,NNE,32,4.0,9.0,66,0.00,,BKN049,0.05,VWS V13.01,2013-04-29 19:32:00,
2013-04-29 12:37:00,54.7,42.8,30.21,North,9,2.0,9.0,64,0.00,,BKN049,0.05,VWS V13.01,2013-04-29 19:37:00,
2013-04-29 12:42:00,54.9,43.4,30.21,NNE,20,10.0,11.0,65,0.00,,BKN049,0.05,VWS V13.01,2013-04-29 19:42:00,
2013-04-29 12:47:00,54.4,42.5,30.21,North,5,1.0,10.0,64,0.00,,BKN049,0.05,VWS V13.01,2013-04-29 19:47:00,
2013-04-29 12:52:00,54.2,42.3,30.22,ENE,63,1.0,11.0,64,0.00,,BKN150,0.05,VWS V13.01,2013-04-29 19:52:00,
2013-04-29 12:58:00,54.9,42.1,30.22,ESE,109,6.0,11.0,62,0.00,,BKN150,0.05,VWS V13.01,2013-04-29 19:58:00,
2013-04-29 13:03:00,55.3,42.1,30.21,East,92,5.0,8.0,61,0.00,,BKN150,0.05,VWS V13.01,2013-04-29 20:03:00,
2013-04-29 13:08:00,55.5,41.9,30.21,South,175,7.0,10.0,60,0.00,,BKN150,0.05,VWS V13.01,2013-04-29 20:08:00,
2013-04-29 13:13:00,55.3,40.8,30.22,ESE,116,5.0,10.0,58,0.00,,BKN150,0.05,VWS V13.01,2013-04-29 20:13:00,
2013-04-29 13:18:00,55.5,40.5,30.21,SE,139,3.0,9.0,57,0.00,,BKN150,0.05,VWS V13.01,2013-04-29 20:18:00,
2013-04-29 13:23:00,55.7,39.8,30.22,South,171,2.0,9.0,55,0.00,,BKN150,0.05,VWS V13.01,2013-04-29 20:23:00,
2013-04-29 13:28:00,56.3,38.9,30.21,SE,139,0.0,9.0,52,0.00,,BKN150,0.05,VWS V13.01,2013-04-29 20:28:00,
2013-04-29 13:33:00,56.4,39.5,30.21,ENE,76,6.0,11.0,53,0.00,,BKN150,0.05,VWS V13.01,2013-04-29 20:33:00,
2013-04-29 13:38:00,56.2,40.3,30.21,NE,50,7.0,11.0,55,0.00,,BKN150,0.05,VWS V13.01,2013-04-29 20:38:00,
2013-04-29 13:43:00,56.3,40.4,30.21,NE,46,3.0,11.0,55,0.00,,BKN150,0.05,VWS V13.01,2013-04-29 20:43:00,
2013-04-29 13:49:00,56.3,41.3,30.21,ENE,61,7.0,11.0,57,0.00,,BKN150,0.05,VWS V13.01,2013-04-29 20:49:00,
2013-04-29 13:54:00,56.2,41.2,30.21,NE,44,9.0,11.0,57,0.00,,BKN200,0.05,VWS V13.01,2013-04-29 20:54:00,
2013-04-29 13:59:00,55.5,41.0,30.21,NNE,16,5.0,13.0,58,0.00,,BKN200,0.05,VWS V13.01,2013-04-29 20:59:00,
2013-04-29 14:04:00,55.9,41.3,30.21,NE,53,12.0,13.0,58,0.00,,BKN200,0.05,VWS V13.01,2013-04-29 21:04:00,
2013-04-29 14:09:00,55.9,41.3,30.21,NNE,20,5.0,14.0,58,0.00,,BKN200,0.05,VWS V13.01,2013-04-29 21:09:00,
2013-04-29 14:14:00,56.3,41.3,30.21,ESE,103,7.0,7.0,57,0.00,,BKN200,0.05,VWS V13.01,2013-04-29 21:14:00,
2013-04-29 14:19:00,56.6,42.0,30.21,NE,42,0.0,10.0,58,0.00,,BKN200,0.05,VWS V13.01,2013-04-29 21:19:00,
2013-04-29 14:24:00,56.8,41.3,30.21,ENE,64,5.0,13.0,56,0.00,,BKN200,0.05,VWS V13.01,2013-04-29 21:24:00,
2013-04-29 14:29:00,56.4,40.0,30.20,NE,38,5.0,7.0,54,0.00,,BKN200,0.05,VWS V13.01,2013-04-29 21:29:00,
2013-04-29 14:34:00,56.5,41.0,30.20,ESE,110,4.0,14.0,56,0.00,,BKN200,0.05,VWS V13.01,2013-04-29 21:34:00,
2013-04-29 14:40:00,56.5,40.5,30.20,South,184,9.0,14.0,55,0.00,,BKN200,0.05,VWS V13.01,2013-04-29 21:40:00,
2013-04-29 14:45:00,56.7,41.7,30.20,East,93,3.0,6.0,57,0.00,,BKN200,0.05,VWS V13.01,2013-04-29 21:45:00,
2013-04-29 14:50:00,57.4,41.8,30.20,South,187,5.0,10.0,56,0.00,,BKN200,0.05,VWS V13.01,2013-04-29 21:50:00,
2013-04-29 14:55:00,57.5,41.5,30.20,NNE,32,4.0,16.0,55,0.00,,BKN200,0.05,VWS V13.01,2013-04-29 21:55:00,
2013-04-29 15:00:00,57.1,40.6,30.20,East,82,6.0,13.0,54,0.00,,BKN200,0.05,VWS V13.01,2013-04-29 22:00:00,
2013-04-29 15:05:00,57.1,42.0,30.20,ENE,60,3.0,13.0,57,0.00,,BKN200,0.05,VWS V13.01,2013-04-29 22:05:00,
2013-04-29 15:10:00,57.2,41.2,30.20,NNE,27,1.0,13.0,55,0.00,,BKN200,0.05,VWS V13.01,2013-04-29 22:10:00,
2013-04-29 15:15:00,57.6,42.0,30.20,South,171,11.0,12.0,56,0.00,,BKN200,0.05,VWS V13.01,2013-04-29 22:15:00,
2013-04-29 15:20:00,56.8,39.9,30.20,South,191,6.0,17.0,53,0.00,,BKN200,0.05,VWS V13.01,2013-04-29 22:20:00,
2013-04-29 15:25:00,56.8,40.8,30.20,SSW,196,3.0,17.0,55,0.00,,BKN200,0.05,VWS V13.01,2013-04-29 22:25:00,
2013-04-29 15:30:00,57.0,41.0,30.20,SSE,147,6.0,9.0,55,0.00,,BKN200,0.05,VWS V13.01,2013-04-29 22:30:00,
2013-04-29 15:36:00,57.1,40.2,30.20,East,83,2.0,13.0,53,0.00,,BKN200,0.05,VWS V13.01,2013-04-29 22:36:00,
2013-04-29 15:41:00,57.1,41.6,30.20,East,97,6.0,13.0,56,0.00,,BKN200,0.05,VWS V13.01,2013-04-29 22:41:00,
2013-04-29 15:46:00,56.5,40.5,30.20,ENE,67,5.0,11.0,55,0.00,,BKN200,0.05,VWS V13.01,2013-04-29 22:46:00,
2013-04-29 15:51:00,56.4,40.9,30.20,South,184,9.0,13.0,56,0.00,,BKN220,0.05,VWS V13.01,2013-04-29 22:51:00,
2013-04-29 15:56:00,56.7,41.2,30.20,SSW,195,3.0,13.0,56,0.00,,BKN220,0.05,VWS V13.01,2013-04-29 22:56:00,
2013-04-29 16:01:00,56.8,41.3,30.20,ENE,76,9.0,11.0,56,0.00,,BKN220,0.05,VWS V13.01,2013-04-29 23:01:00,
2013-04-29 16:06:00,56.1,39.7,30.20,SSW,194,5.0,13.0,54,0.00,,BKN220,0.05,VWS V13.01,2013-04-29 23:06:00,
2013-04-29 16:11:00,56.1,40.6,30.20,ESE,113,1.0,14.0,56,0.00,,BKN220,0.05,VWS V13.01,2013-04-29 23:11:00,
2013-04-29 16:16:00,56.4,40.9,30.20,NE,39,9.0,9.0,56,0.00,,BKN220,0.05,VWS V13.01,2013-04-29 23:16:00,
2013-04-29 16:21:00,56.4,40.0,30.20,SW,228,1.0,13.0,54,0.00,,BKN220,0.05,VWS V13.01,2013-04-29 23:21:00,
2013-04-29 16:26:00,56.7,41.2,30.20,SSE,164,6.0,13.0,56,0.00,,BKN220,0.05,VWS V13.01,2013-04-29 23:26:00,
2013-04-29 16:32:00,56.5,39.6,30.20,East,80,10.0,10.0,53,0.00,,BKN220,0.05,VWS V13.01,2013-04-29 23:32:00,
2013-04-29 16:37:00,55.9,39.5,30.20,ENE,72,0.0,15.0,54,0.00,,BKN220,0.05,VWS V13.01,2013-04-29 23:37:00,
2013-04-29 16:42:00,55.9,39.5,30.20,NE,34,11.0,15.0,54,0.00,,BKN220,0.05,VWS V13.01,2013-04-29 23:42:00,
2013-04-29 16:47:00,55.6,39.2,30.20,East,86,3.0,9.0,54,0.00,,BKN220,0.05,VWS V13.01,2013-04-29 23:47:00,
2013-04-29 16:52:00,55.4,39.5,30.20,SSE,168,2.0,9.0,55,0.00,,BKN220,0.05,VWS V13.01,2013-04-29 23:52:00,
2013-04-29 16:57:00,55.5,41.0,30.20,NNE,15,1.0,9.0,58,0.00,,BKN220,0.05,VWS V13.01,2013-04-29 23:57:00,
2013-04-29 17:02:00,55.7,41.6,30.20,NNE,25,5.0,6.0,59,0.00,,BKN220,0.05,VWS V13.01,2013-04-30 00:02:00,
2013-04-29 17:07:00,55.1,40.6,30.20,NE,42,10.0,16.0,58,0.00,,BKN220,0.05,VWS V13.01,2013-04-30 00:07:00,
2013-04-29 17:12:00,54.6,39.7,30.20,SE,127,5.0,16.0,57,0.00,,BKN220,0.05,VWS V13.01,2013-04-30 00:12:00,
2013-04-29 17:17:00,54.4,40.0,30.20,SSE,150,3.0,6.0,58,0.00,,BKN220,0.05,VWS V13.01,2013-04-30 00:17:00,
2013-04-29 17:22:00,54.3,40.3,30.20,East,87,3.0,10.0,59,0.00,,SCT220,0.05,VWS V13.01,2013-04-30 00:22:00,
2013-04-29 17:28:00,54.1,40.5,30.20,ENE,57,4.0,10.0,60,0.00,,SCT220,0.05,VWS V13.01,2013-04-30 00:28:00,
2013-04-29 17:33:00,54.1,40.1,30.20,South,187,1.0,4.0,59,0.00,,SCT220,0.05,VWS V13.01,2013-04-30 00:33:00,
2013-04-29 17:38:00,53.7,39.7,30.20,NNE,30,0.0,4.0,59,0.00,,SCT220,0.05,VWS V13.01,2013-04-30 00:38:00,
2013-04-29 17:43:00,53.5,40.8,30.20,ENE,60,3.0,5.0,62,0.00,,SCT220,0.05,VWS V13.01,2013-04-30 00:43:00,
2013-04-29 17:48:00,53.2,39.3,30.20,ESE,117,0.0,5.0,59,0.00,,SCT220,0.05,VWS V13.01,2013-04-30 00:48:00,
2013-04-29 17:53:00,53.0,38.6,30.21,SE,139,3.0,5.0,58,0.00,,SCT220,0.05,VWS V13.01,2013-04-30 00:53:00,
2013-04-29 17:58:00,52.7,41.7,30.21,ESE,107,0.0,8.0,66,0.00,,SCT220,0.05,VWS V13.01,2013-04-30 00:58:00,
2013-04-29 18:03:00,52.4,38.5,30.21,East,88,1.0,5.0,59,0.00,,SCT220,0.05,VWS V13.01,2013-04-30 01:03:00,
2013-04-29 18:08:00,52.2,38.8,30.21,North,5,0.0,5.0,60,0.00,,SCT220,0.05,VWS V13.01,2013-04-30 01:08:00,
2013-04-29 18:13:00,52.1,40.3,30.21,North,355,2.0,5.0,64,0.00,,SCT220,0.05,VWS V13.01,2013-04-30 01:13:00,
2013-04-29 18:19:00,51.9,38.0,30.21,ENE,70,2.0,5.0,59,0.00,,SCT220,0.05,VWS V13.01,2013-04-30 01:19:00,
2013-04-29 18:24:00,51.8,40.0,30.21,SSE,165,0.0,8.0,64,0.00,,SCT220,0.05,VWS V13.01,2013-04-30 01:24:00,
2013-04-29 18:29:00,51.4,38.4,30.21,NE,41,2.0,11.0,61,0.00,,SCT220,0.05,VWS V13.01,2013-04-30 01:29:00,
2013-04-29 18:34:00,51.0,40.1,30.21,NNW,343,3.0,7.0,66,0.00,,SCT220,0.05,VWS V13.01,2013-04-30 01:34:00,
2013-04-29 18:39:00,50.6,39.3,30.21,NE,46,3.0,7.0,65,0.00,,SCT220,0.05,VWS V13.01,2013-04-30 01:39:00,
2013-04-29 18:44:00,50.5,39.2,30.21,NW,325,0.0,0.0,65,0.00,,SCT220,0.05,VWS V13.01,2013-04-30 01:44:00,
2013-04-29 18:49:00,50.4,39.1,30.21,NE,36,3.0,6.0,65,0.00,,SCT060,0.05,VWS V13.01,2013-04-30 01:49:00,
2013-04-29 18:54:00,50.3,39.0,30.21,NE,34,5.0,6.0,65,0.00,,SCT060,0.05,VWS V13.01,2013-04-30 01:54:00,
2013-04-29 18:59:00,50.2,39.3,30.21,SSW,193,0.0,0.0,66,0.00,,SCT060,0.05,VWS V13.01,2013-04-30 01:59:00,
2013-04-29 19:04:00,50.1,40.3,30.21,South,190,0.0,1.0,69,0.00,,SCT060,0.05,VWS V13.01,2013-04-30 02:04:00,
2013-04-29 19:09:00,49.8,39.3,30.21,South,185,0.0,1.0,67,0.00,,SCT060,0.05,VWS V13.01,2013-04-30 02:09:00,
2013-04-29 19:15:00,49.5,39.0,30.21,NNE,29,3.0,3.0,67,0.00,,SCT060,0.05,VWS V13.01,2013-04-30 02:15:00,
2013-04-29 19:20:00,49.3,39.9,30.21,NW,325,0.0,7.0,70,0.00,,SCT060,0.05,VWS V13.01,2013-04-30 02:20:00,
2013-04-29 19:25:00,49.1,39.0,30.21,ENE,59,3.0,7.0,68,0.00,,SCT060,0.05,VWS V13.01,2013-04-30 02:25:00,
2013-04-29 19:30:00,49.0,38.9,30.21,NNW,327,0.0,0.0,68,0.00,,SCT060,0.05,VWS V13.01,2013-04-30 02:30:00,
2013-04-29 19:35:00,48.8,39.1,30.21,NNW,327,0.0,0.0,69,0.00,,SCT060,0.05,VWS V13.01,2013-04-30 02:35:00,
2013-04-29 19:40:00,48.5,38.8,30.21,NNW,327,0.0,0.0,69,0.00,,SCT060,0.05,VWS V13.01,2013-04-30 02:40:00,
2013-04-29 19:45:00,48.1,38.4,30.21,NNW,327,0.0,0.0,69,0.00,,SCT060,0.05,VWS V13.01,2013-04-30 02:45:00,
2013-04-29 19:50:00,47.8,37.8,30.21,North,360,0.0,3.0,68,0.00,,SCT220,0.05,VWS V13.01,2013-04-30 02:50:00,
2013-04-29 19:55:00,47.6,37.2,30.21,North,360,0.0,3.0,67,0.00,,SCT220,0.05,VWS V13.01,2013-04-30 02:55:00,
2013-04-29 20:00:00,47.1,36.0,30.21,North,9,1.0,1.0,65,0.00,,SCT220,0.05,VWS V13.01,2013-04-30 03:00:00,
2013-04-29 20:06:00,46.7,36.7,30.21,North,5,0.0,4.0,68,0.00,,SCT220,0.05,VWS V13.01,2013-04-30 03:06:00,
2013-04-29 20:11:00,46.5,36.9,30.22,North,5,0.0,4.0,69,0.00,,SCT220,0.05,VWS V13.01,2013-04-30 03:11:00,
2013-04-29 20:16:00,46.3,36.7,30.22,North,5,0.0,0.0,69,0.00,,SCT220,0.05,VWS V13.01,2013-04-30 03:16:00,
2013-04-29 20:21:00,46.2,36.2,30.22,North,5,0.0,0.0,68,0.00,,SCT220,0.05,VWS V13.01,2013-04-30 03:21:00,
2013-04-29 20:26:00,46.1,36.5,30.22,North,5,0.0,0.0,69,0.00,,SCT220,0.05,VWS V13.01,2013-04-30 03:26:00,
2013-04-29 20:31:00,46.0,36.4,30.22,North,5,0.0,0.0,69,0.00,,SCT220,0.05,VWS V13.01,2013-04-30 03:31:00,
2013-04-29 20:36:00,45.8,35.8,30.22,North,5,0.0,0.0,68,0.00,,SCT220,0.05,VWS V13.01,2013-04-30 03:36:00,
2013-04-29 20:41:00,45.6,34.5,30.22,North,5,0.0,0.0,65,0.00,,SCT220,0.05,VWS V13.01,2013-04-30 03:41:00,
2013-04-29 20:46:00,45.3,34.6,30.22,North,5,0.0,0.0,66,0.00,,SCT220,0.05,VWS V13.01,2013-04-30 03:46:00,
2013-04-29 20:51:00,45.0,33.2,30.22,North,5,0.0,0.0,63,0.00,,SCT230,0.05,VWS V13.01,2013-04-30 03:51:00,
2013-04-29 20:57:00,44.9,33.1,30.22,NE,34,3.0,3.0,63,0.00,,SCT230,0.05,VWS V13.01,2013-04-30 03:57:00,
2013-04-29 21:01:00,44.7,33.7,30.22,North,10,0.0,1.0,65,0.00,,SCT230,0.05,VWS V13.01,2013-04-30 04:01:00,
2013-04-29 21:02:00,44.7,33.3,30.22,NNE,26,0.0,4.0,64,0.00,,SCT230,0.05,VWS V13.01,2013-04-30 04:02:00,
2013-04-29 21:07:00,44.6,33.2,30.22,North,355,0.0,4.0,64,0.00,,SCT230,0.05,VWS V13.01,2013-04-30 04:07:00,
2013-04-29 21:12:00,44.5,32.3,30.22,North,355,0.0,4.0,62,0.00,,SCT230,0.05,VWS V13.01,2013-04-30 04:12:00,
2013-04-29 21:17:00,44.4,32.6,30.22,NNE,15,0.0,2.0,63,0.00,,SCT230,0.05,VWS V13.01,2013-04-30 04:17:00,
2013-04-29 21:22:00,44.2,32.4,30.22,NNE,25,1.0,4.0,63,0.00,,SCT230,0.05,VWS V13.01,2013-04-30 04:22:00,
2013-04-29 21:27:00,44.1,32.7,30.22,NE,34,0.0,4.0,64,0.00,,SCT230,0.05,VWS V13.01,2013-04-30 04:27:00,
2013-04-29 21:33:00,44.0,31.4,30.23,ENE,57,3.0,4.0,61,0.00,,SCT230,0.05,VWS V13.01,2013-04-30 04:33:00,
2013-04-29 21:38:00,43.9,32.9,30.23,NNW,348,0.0,5.0,65,0.00,,SCT230,0.05,VWS V13.01,2013-04-30 04:38:00,
2013-04-29 21:43:00,43.9,30.9,30.23,ENE,59,1.0,5.0,60,0.00,,SCT230,0.05,VWS V13.01,2013-04-30 04:43:00,
2013-04-29 21:48:00,43.9,31.7,30.23,NW,324,0.0,9.0,62,0.00,,SCT230,0.05,VWS V13.01,2013-04-30 04:48:00,
2013-04-29 21:53:00,43.8,32.4,30.23,East,80,1.0,9.0,64,0.00,,SCT250,0.05,VWS V13.01,2013-04-30 04:53:00,
2013-04-29 21:58:00,43.7,31.1,30.23,NNW,338,0.0,9.0,61,0.00,,SCT250,0.05,VWS V13.01,2013-04-30 04:58:00,
2013-04-29 22:03:00,43.6,30.2,30.23,ENE,67,0.0,3.0,59,0.00,,SCT250,0.05,VWS V13.01,2013-04-30 05:03:00,
2013-04-29 22:08:00,43.3,28.7,30.23,NNE,32,0.0,3.0,56,0.00,,SCT250,0.05,VWS V13.01,2013-04-30 05:08:00,
2013-04-29 22:13:00,43.0,27.0,30.24,NNE,32,0.0,3.0,53,0.00,,SCT250,0.05,VWS V13.01,2013-04-30 05:13:00,
2013-04-29 22:18:00,42.7,25.9,30.24,NNE,32,0.0,0.0,51,0.00,,SCT250,0.05,VWS V13.01,2013-04-30 05:18:00,
2013-04-29 22:24:00,42.5,23.2,30.24,NNE,32,0.0,0.0,46,0.00,,SCT250,0.05,VWS V13.01,2013-04-30 05:24:00,
2013-04-29 22:29:00,42.2,21.3,30.24,NNE,32,0.0,0.0,43,0.00,,SCT250,0.05,VWS V13.01,2013-04-30 05:29:00,
2013-04-29 22:34:00,41.9,17.5,30.24,NNE,32,0.0,0.0,37,0.00,,SCT250,0.05,VWS V13.01,2013-04-30 05:34:00,
2013-04-29 22:39:00,41.7,14.7,30.24,NW,319,0.0,1.0,33,0.00,,SCT250,0.05,VWS V13.01,2013-04-30 05:39:00,
2013-04-29 22:44:00,41.4,9.9,30.25,NW,319,0.0,0.0,27,0.00,,SCT250,0.05,VWS V13.01,2013-04-30 05:44:00,
2013-04-29 22:49:00,41.1,8.0,30.25,NW,319,0.0,0.0,25,0.00,,SCT250,0.05,VWS V13.01,2013-04-30 05:49:00,
2013-04-29 22:54:00,40.9,5.0,30.25,NW,319,0.0,0.0,22,0.00,,SCT250,0.05,VWS V13.01,2013-04-30 05:54:00,
2013-04-29 22:59:00,40.7,-3.3,30.25,NW,319,0.0,0.0,15,0.00,,SCT250,0.05,VWS V13.01,2013-04-30 05:59:00,
2013-04-29 23:04:00,40.5,-18.8,30.25,NW,319,0.0,0.0,7,0.00,,SCT250,0.05,VWS V13.01,2013-04-30 06:04:00,
2013-04-29 23:09:00,40.3,-29.5,30.25,NW,319,0.0,0.0,4,0.00,,SCT250,0.05,VWS V13.01,2013-04-30 06:09:00,
2013-04-29 23:14:00,40.2,-19.0,30.25,NW,319,0.0,0.0,7,0.00,,SCT250,0.05,VWS V13.01,2013-04-30 06:14:00,
2013-04-29 23:20:00,40.0,-34.8,30.25,NW,319,0.0,0.0,3,0.00,,SCT250,0.05,VWS V13.01,2013-04-30 06:20:00,
2013-04-29 23:25:00,39.8,0.0,30.25,NW,319,0.0,0.0,0,0.00,,SCT250,0.05,VWS V13.01,2013-04-30 06:25:00,
2013-04-29 23:30:00,39.6,0.0,30.25,NW,319,0.0,0.0,0,0.00,,SCT250,0.05,VWS V13.01,2013-04-30 06:30:00,
2013-04-29 23:35:00,39.5,0.0,30.25,NW,319,0.0,0.0,0,0.00,,SCT250,0.05,VWS V13.01,2013-04-30 06:35:00,
2013-04-29 23:40:00,39.3,0.0,30.26,NW,319,0.0,0.0,0,0.00,,SCT250,0.05,VWS V13.01,2013-04-30 06:40:00,
2013-04-29 23:45:00,39.1,0.0,30.26,NW,319,0.0,0.0,0,0.00,,SCT250,0.05,VWS V13.01,2013-04-30 06:45:00,
2013-04-29 23:50:00,38.9,0.0,30.26,NW,319,0.0,0.0,0,0.00,,CLR,0.05,VWS V13.01,2013-04-30 06:50:00,
2013-04-29 23:55:00,38.8,0.0,30.26,NW,319,0.0,0.0,0,0.00,,CLR,0.05,VWS V13.01,2013-04-30 06:55:00,